KZROInput File - 14071907/17/2014 5:35:13 PM
STimeDurCatCodeINENameArtist
00:01:0004:33104DA279300FWhat Is And What Should NeverLed Zeppelin
00:02:0001:01COMNG2896NBC TOH Net SpotCNN RADIO
00:05:0201:01COMNF2895NBC B SpotCNN RADIO
00:06:0006:00COMDALIVEI06:00 StopSet
00:06:0000:05COMVO109500FZLNR-STOPSETZ100FM
00:06:0001:07CADA507400FZ-LAKE SISQ REMOTE BDCSTLake Sis Grill and Brew
00:06:0000:55CADA105000FELLIS BROOKS HONDAEllis Brooks Honda
00:06:0001:00CADA116100FFUN FACTORY RENTALSFun Factory Rentals
00:06:0001:00CADA103800FTM ESCROW+NOTARYTM Escrow And Notary
00:06:0001:00COMVO289600NET SPOT A
00:06:0001:00COMDA101200FWKDYSHOPRNITEZ100FM Promo
00:06:0000:10COMVO100100FPM LNGBLK SWPZ100FM
00:10:0004:43104DA306018FMan In The Box [QuestionableAlice In Chains
00:14:0004:07106DA682519FSour GirlStone Temple Pilots
00:18:0000:15COMVO110200FZ-PM TransitionZ100FM
00:19:0004:31105DA622224FToo Late For LoveDef Leppard
00:23:0003:36104DA335422CWind Of ChangeScorpions
00:26:0000:15COMVO110200FZ-PM TransitionZ100FM
00:27:0004:25112DA005407CBludsuckerDeep Purple
00:30:0001:00COMNB2904CNN Net News 2CNN RADIO
00:31:0003:43110DA038019CI'm Coming OnTen Years After
00:35:0006:00COMDALIVEI35:00 StopSet
00:35:0000:05COMVO109500FZLNR-STOPSETZ100FM
00:35:0000:59COMDA290400NBC NEWS 1:00
00:35:0000:43CADA116500FEXPRESS EMPLOYMENT PROF.Express Employment Professionals
00:35:0001:00COMVO289500NET SPOT B
00:40:0000:01COMVO112100FZ-WEATHERZChannel Radio
00:40:0000:29ATWEAX00CZ-WX
00:40:0001:00COMDA101200FWKDYSHOPRNITEZ100FM Promo
00:40:0000:10COMVO100100FPM LNGBLK SWPZ100FM
00:41:0005:32104DA300216CCome AgainDamn Yankees
00:44:0005:04106DA686254FVoodoo Chile (Slight Return)Hendrix, Jimi
00:48:0000:15COMVO110200FZ-PM TransitionZ100FM
00:49:0003:17109DA038523FSmokeDrivin N Cryin
00:52:0005:07112DA013841FC'Mon EverybodyHumble Pie
00:57:0005:53109DA018999FHouse Of Broken LoveGreat White
*00:58:00COMVO107400F58:00 KZRO/CR Legal IDZ100FM
01:01:0003:24109DA028213FUncle Tom's CabinWarrant
01:02:0001:01COMNG2896NBC TOH Net SpotCNN RADIO
01:05:0201:01COMNF2895NBC B SpotCNN RADIO
01:06:0006:00COMDALIVEI06:00 StopSet
01:06:0000:05COMVO109500FZLNR-STOPSETZ100FM
01:06:0001:00CADA103400FWATERWORKS PARKWaterworks Park
01:06:0001:00CADA102000FTACO BELL/KFCTaco Bell/KFC
01:06:0000:60CADA102200FCOSCollege of the Siskiyous
01:06:0000:35CADA102100FSTATE FARM INSURANCERuss Porterfield Insurance
01:06:0001:00COMVO289600NET SPOT A
01:06:0001:00COMDA101200FWKDYSHOPRNITEZ100FM Promo
01:06:0000:10COMVO100100FPM LNGBLK SWPZ100FM
01:10:0005:35105DA624231CShe Talks To AngelsBlack Crowes
01:14:0002:07114DA020824FChicagoFripp, Robert
01:18:0000:15COMVO110200FZ-PM TransitionZ100FM
01:19:0005:49109DA031527FSong & EmotionTesla
01:23:0003:17114DA024609FThe SliderT. Rex/Marc Bolan
01:26:0000:15COMVO110200FZ-PM TransitionZ100FM
01:27:0004:51107DA888511CGive It AwayRed Hot Chili Peppers
01:30:0001:00COMNB2904CNN Net News 2CNN RADIO
01:31:0005:25105DA555401FYoung Lust [Live]Pink Floyd
01:35:0006:00COMDALIVEI35:00 StopSet
01:35:0000:05COMVO109500FZLNR-STOPSETZ100FM
01:35:0000:59COMDA290400NBC NEWS 1:00
01:35:0000:43CADA116500FEXPRESS EMPLOYMENT PROF.Express Employment Professionals
01:35:0000:30CADA102700FRADD/DRUNK DRIVING PSAAd Council-RADD+RAB
01:35:0001:00COMVO289500NET SPOT B
01:40:0000:01COMVO112100FZ-WEATHERZChannel Radio
01:40:0000:29ATWEAX00CZ-WX
01:40:0001:00COMDA101200FWKDYSHOPRNITEZ100FM Promo
01:40:0000:10COMVO100100FPM LNGBLK SWPZ100FM
01:41:0006:49106DA678600FBeyond The Realms Of DeathJudas Priest
01:44:0006:54112DA014836FKillerCooper, Alice
01:48:0000:15COMVO110200FZ-PM TransitionZ100FM
01:52:0007:57105DA645307CWalk On (Longer Walk)Boston
01:57:0003:08111DA007000FNeedle And SpoonSavoy Brown
*01:58:00COMVO107300F58:00 KZRO/CR Legal IDshortZ100FM
02:01:0004:27107DA892504FWalk On [Radio Edit]U2
02:02:0001:01COMNG2896NBC TOH Net SpotCNN RADIO
02:05:0201:01COMNF2895NBC B SpotCNN RADIO
02:06:0006:00COMDALIVEI06:00 StopSet
02:06:0000:05COMVO109500FZLNR-STOPSETZ100FM
02:06:0001:00CADA102300FREDDING SUBARURedding Subaru
02:06:0001:00CADA102400FBROOKS AUTOMOTIVEBrooks Complete Automotive
02:06:0000:30CADA110600FSCCU CREDIT UNIONSiskiyou Central Credit Union
02:06:0001:00CADA103700FSAY CHEESE PIZZASay Cheese Pizza
02:06:0001:00COMVO289600NET SPOT A
02:06:0001:00COMDA101200FWKDYSHOPRNITEZ100FM Promo
02:06:0000:10COMVO100100FPM LNGBLK SWPZ100FM
02:10:0003:39109DA038627FDown IncognitoWinger
02:14:0004:18114DA003939BabylonBlue Cheer
02:18:0000:15COMVO110200FZ-PM TransitionZ100FM
02:19:0003:14114DA013418FGlorified G [Live Fox Theater Atlanta]Pearl Jam [Live]
02:23:0004:47109DA016517FComing HomeCinderella
02:26:0000:15COMVO110200FZ-PM TransitionZ100FM
02:27:0004:31114DA014727FShow Me The Way [Live-Ventura Theater]Frampton, Peter [Live]
02:30:0001:00COMNB2904CNN Net News 2CNN RADIO
02:31:0005:10112DA037500FEarache My EyeCheech And Chong
02:35:0006:00COMDALIVEI35:00 StopSet
02:35:0000:05COMVO109500FZLNR-STOPSETZ100FM
02:35:0000:59COMDA290400NBC NEWS 1:00
02:35:0000:30CADA104300FPAPA MURPHY'S PIZZAPapa Murphy's Pizza
02:35:0000:30CADA110600FSCCU CREDIT UNIONSiskiyou Central Credit Union
02:35:0001:00COMVO289500NET SPOT B
02:40:0000:01COMVO112100FZ-WEATHERZChannel Radio
02:40:0000:29ATWEAX00CZ-WX
02:40:0001:00COMDA101200FWKDYSHOPRNITEZ100FM Promo
02:40:0000:10COMVO100100FPM LNGBLK SWPZ100FM
02:41:0012:29110DA049102FBack Where It All Began [live]Allman Brothers, The
02:44:0000:15COMVO110200FZ-PM TransitionZ100FM
02:48:0006:01112DA013674FFight To The FinishGamma
02:52:0005:50109DA008246FSweet Child O' MineGuns N' Roses
*02:58:00COMVO107400F58:00 KZRO/CR Legal IDZ100FM
03:01:0003:50109DA029534FThe Dream Is OverVan Halen
03:02:0001:01COMNG2896NBC TOH Net SpotCNN RADIO
03:05:0201:01COMNF2895NBC B SpotCNN RADIO
03:06:0006:00COMDALIVEI06:00 StopSet
03:06:0000:05COMVO109500FZLNR-STOPSETZ100FM
03:06:0001:00CADA102000FTACO BELL/KFCTaco Bell/KFC
03:06:0001:00CADA104100FSISQ.COUNTY FIRE CHEIFSSisq. County Fire Cheifs
03:06:0000:60CADA102200FCOSCollege of the Siskiyous
03:06:0000:30CADA118100FSPORTSMEN'S DENSportsmen's Den
03:06:0001:00COMVO289600NET SPOT A
03:06:0001:00COMDA101200FWKDYSHOPRNITEZ100FM Promo
03:06:0000:10COMVO100100FPM LNGBLK SWPZ100FM
03:10:0004:49104DA289529CThunderstruckAC/DC
03:14:0003:54114DA028902FAC/DC-Queen We Will Rock YouMASHUP-Queen vs. AC/DC
03:18:0000:15COMVO110200FZ-PM TransitionZ100FM
03:19:0004:29112DA029915FAdams AppleAerosmith
03:23:0003:27106DA730623FCalling Dr. LoveKiss
03:26:0000:15COMVO110200FZ-PM TransitionZ100FM
03:27:0003:58109DA035612FCat's In The CradleUgly Kid Joe
03:30:0001:00COMNB2904CNN Net News 2CNN RADIO
03:31:0004:38105DA629823CLowCracker
03:35:0006:00COMDALIVEI35:00 StopSet
03:35:0000:05COMVO109500FZLNR-STOPSETZ100FM
03:35:0000:59COMDA290400NBC NEWS 1:00
03:35:0000:30CADA116900FTHE FIFTH SEASONThe Fifth Season
03:35:0000:30CADA102800FNORTHLAND CABLE CO.Northland Communications
03:35:0001:00COMVO289500NET SPOT B
03:40:0000:01COMVO112100FZ-WEATHERZChannel Radio
03:40:0000:29ATWEAX00CZ-WX
03:40:0001:00COMDA101200FWKDYSHOPRNITEZ100FM Promo
03:40:0000:10COMVO100100FPM LNGBLK SWPZ100FM
03:41:0002:11103DA240509CTushZZ Top
03:44:0006:31103DA241200FI've See All Good PeopleYes
03:48:0000:15COMVO110200FZ-PM TransitionZ100FM
03:49:0005:27106DA753220FSea Of SorrowAlice In Chains
03:52:0006:02109DA010935FSlow An' EasyWhitesnake
03:57:0005:52110DA042301FCrystal Ball [live]Styx
*03:58:00COMVO107300F58:00 KZRO/CR Legal IDshortZ100FM
04:01:0004:07110DA052512CCandy Store RockLed Zeppelin
04:02:0001:01COMNG2896NBC TOH Net SpotCNN RADIO
04:05:0201:01COMNF2895NBC B SpotCNN RADIO
04:06:0006:00COMDALIVEI06:00 StopSet
04:06:0000:05COMVO109500FZLNR-STOPSETZ100FM
04:06:0001:07CADA507400FZ-LAKE SISQ REMOTE BDCSTLake Sis Grill and Brew
04:06:0001:00CADA104100FSISQ.COUNTY FIRE CHEIFSSisq. County Fire Cheifs
04:06:0001:00CADA103400FWATERWORKS PARKWaterworks Park
04:06:0001:00CADA102300FREDDING SUBARURedding Subaru
04:06:0001:00COMVO289600NET SPOT A
04:06:0001:00COMDA101200FWKDYSHOPRNITEZ100FM Promo
04:06:0000:10COMVO100100FPM LNGBLK SWPZ100FM
04:10:0005:50104DA306129FNo More TearsOzzy Osbourne
04:14:0003:21114DA028213FDancing In The StreetThin Lizzy
04:18:0000:15COMVO110200FZ-PM TransitionZ100FM
04:19:0003:57103DA238300CRock Of AgesDef Leppard
04:23:0005:45110DA050629FConfessin' MidnightTrower, Robin
04:26:0000:15COMVO110200FZ-PM TransitionZ100FM
04:27:0003:45110DA049819FRunawayBon Jovi
04:30:0001:00COMNB2904CNN Net News 2CNN RADIO
04:31:0003:25114DA012406FBeck's Bolero/LiveJeff Beck
04:35:0006:00COMDALIVEI35:00 StopSet
04:35:0000:05COMVO109500FZLNR-STOPSETZ100FM
04:35:0000:59COMDA290400NBC NEWS 1:00
04:35:0000:55CADA105000FELLIS BROOKS HONDAEllis Brooks Honda
04:35:0000:30CADA118100FSPORTSMEN'S DENSportsmen's Den
04:35:0001:00COMVO289500NET SPOT B
04:40:0000:01COMVO112100FZ-WEATHERZChannel Radio
04:40:0000:29ATWEAX00CZ-WX
04:40:0001:00COMDA101200FWKDYSHOPRNITEZ100FM Promo
04:40:0000:10COMVO100100FPM LNGBLK SWPZ100FM
04:44:0007:48114DA015810F Does Anybody Really KWTIS [Live] TanglewooChicago
04:48:0000:15COMVO110200FZ-PM TransitionZ100FM
04:49:0007:28112DA000301FSmoke On The Water [live]Deep Purple
04:52:0004:45109DA044310FNobody's HeroRush
04:57:0005:22110DA037417FI Woke Up This MorningTen Years After
*04:58:00COMVO107400F58:00 KZRO/CR Legal IDZ100FM
05:01:0005:23112DA027600FRock Candy [Live-Studio]Montrose
05:02:0001:01COMNG2896NBC TOH Net SpotCNN RADIO
05:05:0201:01COMNF2895NBC B SpotCNN RADIO
05:06:0006:00COMDALIVEI06:00 StopSet
05:06:0000:05COMVO109500FZLNR-STOPSETZ100FM
05:06:0000:30CADA116900FTHE FIFTH SEASONThe Fifth Season
05:06:0001:00CADA102400FBROOKS AUTOMOTIVEBrooks Complete Automotive
05:06:0001:00CADA103700FSAY CHEESE PIZZASay Cheese Pizza
05:06:0001:00CADA116100FFUN FACTORY RENTALSFun Factory Rentals
05:06:0001:00COMVO289600NET SPOT A
05:06:0001:00COMDA101200FWKDYSHOPRNITEZ100FM Promo
05:06:0000:10COMVO100100FPM LNGBLK SWPZ100FM
05:10:0004:21105DA623400FJealous AgainBlack Crowes, The
05:14:0004:24109DA028715FCall It What You WantTesla
05:18:0000:15COMVO110200FZ-PM TransitionZ100FM
05:19:0003:19109DA017923FI Can't ExplainScorpions, The
05:23:0003:42105DA514820CTie Your Mother DownQueen
05:26:0000:15COMVO110200FZ-PM TransitionZ100FM
05:27:0004:03109DA019329FLife In DetailPalmer, Robert
05:30:0001:00COMNB2904CNN Net News 2CNN RADIO
05:31:0005:01109DA007127FMiss YouClapton, Eric
05:35:0006:00COMDALIVEI35:00 StopSet
05:35:0000:05COMVO109500FZLNR-STOPSETZ100FM
05:35:0000:59COMDA290400NBC NEWS 1:00
05:35:0000:30CADA104300FPAPA MURPHY'S PIZZAPapa Murphy's Pizza
05:35:0000:30CADA102700FRADD/DRUNK DRIVING PSAAd Council-RADD+RAB
05:35:0001:00COMVO289500NET SPOT B
05:40:0000:01COMVO112100FZ-WEATHERZChannel Radio
05:40:0000:29ATWEAX00CZ-WX
05:40:0001:00COMDA101200FWKDYSHOPRNITEZ100FM Promo
05:40:0000:10COMVO100100FPM LNGBLK SWPZ100FM
05:41:0004:02109DA043622FHigh Road EasyJordan, Sass
05:44:0007:00112DA007103FIt Makes No DifferencePat Travers Band
05:48:0000:15COMVO110200FZ-PM TransitionZ100FM
05:49:0005:30112DA016943FLadyBeck, Bogart & Appice
05:52:0004:09109DA032100FSummer SongSatriani, Joe
05:57:0003:30105DA624000CRighteousJohnson, Eric
*05:58:00COMVO107300F58:00 KZRO/Legal ID CLSXZ100FM
06:00:0653:50521DA000100The Car Show
06:00:30COMVO109500FZLnr-StopsetZ100FM
06:02:0001:01COMNG2896NBC TOH Net SpotCNN RADIO
06:02:0006:00COMDALIVEI02:00 StopSet
06:02:0001:00CADA102400FBROOKS AUTOMOTIVEBrooks Complete Automotive
06:02:0001:07CADA507400FZ-LAKE SISQ REMOTE BDCSTLake Sis Grill and Brew
06:02:0001:00CADA104100FSISQ.COUNTY FIRE CHEIFSSisq. County Fire Cheifs
06:02:0001:00COMVO289600NET SPOT A
06:05:0000:15CADA117500FBURGER EXPRESS/WXBurger Express
06:05:0000:30COMVO112000FZ-WEATHERZ100fm Weather
06:05:0000:29ATWEAX00CZ-WX
06:05:0001:00COMVO100900FWKND SHOPROMOZ100FM
06:05:0201:01COMNF2895NBC B SpotCNN RADIO
06:30:0001:00COMNB2904CNN Net News 2CNN RADIO
07:00:00COMVO107300FKZRO/Legal ID CLSXZ100FM
07:00:3000:34COMDA333000FHouse of Blues PromoElwood Blues
07:02:0001:01COMNG2896NBC TOH Net SpotCNN RADIO
07:02:0015:48500DA000100DClark's RRR H1/T1
07:05:0201:01COMNF2895NBC B SpotCNN RADIO
07:15:0002:00COMDALIVEI15:00 StopSet
07:15:0000:05COMVO101300FQUICK-ZZ100FM
07:15:0001:07CADA507400FZ-LAKE SISQ REMOTE BDCSTLake Sis Grill and Brew
07:16:0001:00COMVO289600NET SPOT A
07:16:0000:30COMVO109100FZ DAYTIME SWPZ-CHANNEL RADIO
07:17:0015:52500DA000200DClark's RRR H1/T2
07:30:0001:00COMNB2904CNN Net News 2CNN RADIO
07:35:0001:00COMDALIVEI35:00 StopSet
07:35:0000:05COMVO101300FQUICK-ZZ100FM
07:35:0001:00CADA102400FBROOKS AUTOMOTIVEBrooks Complete Automotive
07:35:0000:05COMVO101300FQUICK-ZZ100FM
07:36:0017:34500DA000300DClark's RRR H1/T3
07:45:0003:00COMDALIVEI45:00 StopSet
07:45:0000:05COMVO101300FQUICK-ZZ100FM
07:45:0000:30CADA110600FSCCU CREDIT UNIONSiskiyou Central Credit Union
07:45:0000:59COMDA290400NBC NEWS 1:00
07:47:0003:57500DA000400DClark's RRR H1/T4
07:50:0000:12CADA520500FA-LIST VACATION RTLS/WXA-List Vacation Rentals
07:50:0000:30COMVO112000FZ-WEATHERZ100fm Weather
07:50:0000:29ATWEAX00CZ-WX
07:50:0000:30COMVO109100FZ DAYTIME SWPZ-CHANNEL RADIO
08:00:00COMVO107300FKZRO/Legal ID CLSXZ100FM
08:00:3000:41COMDA332300FAmer.Hit List PromoMachine Gun Kelly
08:01:0000:05CADA572200FCABITTO'S SMALL ENGINE RECabitto's Small Engine Repair
08:02:0001:01COMNG2896NBC TOH Net SpotCNN RADIO
08:02:0020:41501DA000100DClark's RRR H2/T1
08:05:0201:01COMNF2895NBC B SpotCNN RADIO
08:15:0002:00COMDALIVEI15:00 StopSet
08:15:0000:05COMVO101300FQUICK-ZZ100FM
08:16:0000:33CADA110000FCABITTO'S ENGINE RPR.Cabitto's Small Engine Repair
08:16:0000:55CADA105000FELLIS BROOKS HONDAEllis Brooks Honda
08:16:0001:00COMVO289600NET SPOT A
08:16:0000:30COMVO109100FZ DAYTIME SWPZ-CHANNEL RADIO
08:17:0013:23501DA000200DClark's RRR H2/T2
08:30:0001:00COMNB2904CNN Net News 2CNN RADIO
08:35:0001:00COMDALIVEI35:00 StopSet
08:35:0000:05COMVO101300FQUICK-ZZ100FM
08:35:0001:07CADA507400FZ-LAKE SISQ REMOTE BDCSTLake Sis Grill and Brew
08:35:0000:05COMVO101300FQUICK-ZZ100FM
08:36:0015:46501DA000300DClark's RRR H2/T3
08:45:0003:00COMDALIVEI45:00 StopSet
08:45:0000:05COMVO101300FQUICK-ZZ100FM
08:45:0000:30CADA118100FSPORTSMEN'S DENSportsmen's Den
08:45:0000:59COMDA290400NBC NEWS 1:00
08:47:0003:22501DA000400DClark's RRR H2/T4
08:50:0000:12CADA503300FBLACK BUTTE AUTO/WXBlack Butte Towing
08:50:0000:30COMVO112000FZ-WEATHERZ100fm Weather
08:50:0000:29ATWEAX00CZ-WX
08:50:0000:30COMVO109100FZ DAYTIME SWPZ-CHANNEL RADIO
09:00:00COMVO107300FKZRO/Legal ID CLSXZ100FM
09:00:3000:46COMDA333200FThe Classics PromoSteve Downes
09:02:0001:01COMNG2896NBC TOH Net SpotCNN RADIO
09:02:0014:22502DA000100DClark's RRR H3/T1
09:05:0201:01COMNF2895NBC B SpotCNN RADIO
09:15:0002:00COMDALIVEI15:00 StopSet
09:15:0000:05COMVO101300FQUICK-ZZ100FM
09:16:0001:07CADA507400FZ-LAKE SISQ REMOTE BDCSTLake Sis Grill and Brew
09:16:0001:00COMVO289600NET SPOT A
09:16:0000:30COMVO109100FZ DAYTIME SWPZ-CHANNEL RADIO
09:17:0017:23502DA000200DClark's RRR H3/T2
09:30:0001:00COMNB2904CNN Net News 2CNN RADIO
09:35:0001:00COMDALIVEI35:00 StopSet
09:35:0000:05COMVO101300FQUICK-ZZ100FM
09:35:0001:00CADA103700FSAY CHEESE PIZZASay Cheese Pizza
09:35:0000:05COMVO101300FQUICK-ZZ100FM
09:36:0017:29502DA000300DClark's RRR H3/T3
09:45:0003:00COMDALIVEI45:00 StopSet
09:45:0000:05COMVO101300FQUICK-ZZ100FM
09:45:0001:07CADA507400FZ-LAKE SISQ REMOTE BDCSTLake Sis Grill and Brew
09:45:0000:59COMDA290400NBC NEWS 1:00
09:47:0004:02502DA000400DClark's RRR H3/T4
09:50:0000:15CADA109900FSOUL CONNECTIONSSoul Connection
09:50:0000:30COMVO112000FZ-WEATHERZ100fm Weather
09:50:0000:29ATWEAX00CZ-WX
09:50:0000:30COMVO109100FZ DAYTIME SWPZ-CHANNEL RADIO
10:00:00COMVO107300FKZRO/Legal ID CLSXZ100FM
10:00:3000:28COMDA332700FBeatle Years PromoBob Mallick
10:02:0001:01COMNG2896NBC TOH Net SpotCNN RADIO
10:02:0017:30503DA000100DClark's RRR H4/T1
10:05:0201:01COMNF2895NBC B SpotCNN RADIO
10:15:0002:00COMDALIVEI15:00 StopSet
10:15:0000:05COMVO101300FQUICK-ZZ100FM
10:15:0001:07CADA507400FZ-LAKE SISQ REMOTE BDCSTLake Sis Grill and Brew
10:16:0000:43CADA116500FEXPRESS EMPLOYMENT PROF.Express Employment Professionals
10:16:0000:55CADA105000FELLIS BROOKS HONDAEllis Brooks Honda
10:16:0001:00COMVO289600NET SPOT A
10:16:0000:30COMVO109100FZ DAYTIME SWPZ-CHANNEL RADIO
10:17:0015:00503DA000200DClark's RRR H4/T2
10:30:0001:00COMNB2904CNN Net News 2CNN RADIO
10:35:0001:00COMDALIVEI35:00 StopSet
10:35:0000:05COMVO101300FQUICK-ZZ100FM
10:35:0001:00CADA102300FREDDING SUBARURedding Subaru
10:35:0000:05COMVO101300FQUICK-ZZ100FM
10:36:0015:29503DA000300DClark's RRR H4/T3
10:45:0003:00COMDALIVEI45:00 StopSet
10:45:0000:05COMVO101300FQUICK-ZZ100FM
10:45:0001:07CADA507400FZ-LAKE SISQ REMOTE BDCSTLake Sis Grill and Brew
10:45:0000:59COMDA290400NBC NEWS 1:00
10:47:0004:58503DA000400DClark's RRR H4/T4
10:50:0000:15CADA118000FDECLERCK ENTERPRISESTaco Bell WX
10:50:0000:30COMVO112000FZ-WEATHERZ100fm Weather
10:50:0000:29ATWEAX00CZ-WX
10:50:0000:30COMVO109100FZ DAYTIME SWPZ-CHANNEL RADIO
11:00:00COMVO107300FKZRO/Legal ID CLSXZ100FM
11:01:0002:00101DA012500FI Get AroundBeach Boys
11:02:0001:01COMNG2896NBC TOH Net SpotCNN RADIO
11:03:0002:53102DA064509F96 Tears? & The Mysterians
11:05:0201:01COMNF2895NBC B SpotCNN RADIO
11:06:0006:00COMDALIVEI06:00 StopSet
11:06:0000:55CADA105000FELLIS BROOKS HONDAEllis Brooks Honda
11:06:0001:00CADA103400FWATERWORKS PARKWaterworks Park
11:06:0000:30CADA118100FSPORTSMEN'S DENSportsmen's Den
11:06:0000:30CADA116900FTHE FIFTH SEASONThe Fifth Season
11:06:0001:00COMVO289600NET SPOT A
11:06:0001:00COMDA101000FWKDYSHO PROMOZ100FM
11:06:0000:32COMVO107600FDMD+PS SWPRZ100FM Bumper
11:11:0003:27111DA007200FR&R MedleyJive Bunny + Mastermixers
11:14:0003:24114DA020512FWhat You See Is What You GetDramatics, The
11:17:0000:30COMVO109100FZ JingleZ-CHANNEL RADIO
11:18:0002:02101DA016808FI Think We're Alone NowTommy James & The Shondells
11:20:0003:27101DA058805FJoy To The WorldThree Dog Night
11:24:0002:50102DA078705FDaydream BelieverMonkees
11:27:00COMVO110300FZ CLSX SweeperZ100FM
11:28:0004:07104DA423101CLiving In AmericaBrown, James
11:30:0001:00COMNB2904CNN Net News 2CNN RADIO
11:31:0005:11114DA028601FAmerican Woman [Live-Midnight Special]Guess Who, The
11:35:0006:00COMDALIVEI35:00 StopSet
11:35:0000:59COMDA290400NBC NEWS 1:00
11:35:0000:30CADA104300FPAPA MURPHY'S PIZZAPapa Murphy's Pizza
11:35:0001:00CADA116100FFUN FACTORY RENTALSFun Factory Rentals
11:35:0001:00COMVO289500NET SPOT B
11:40:0000:15CADA101600FFUR PURRSONS PET RST/WXFur Purrson's Pet Resort
11:40:0000:30COMVO112000FZ-WEATHERZ100fm Weather
11:40:0000:29ATWEAX00CZ-WX
11:40:0001:00COMDA101000FWKDYSHO PROMOZ100FM
11:40:0000:10COMVO100100FPM LNGBLK SWPZ100FM
11:41:0003:14104DA322014FSuper FreakJames, Rick
11:44:0006:12105DA485320CWhite BirdIt's A Beautiful Day
11:47:0000:30COMVO109100FZ JingleZ-CHANNEL RADIO
11:48:0003:23101DA055930CWe're An American BandGrand Funk Railroad
11:50:0004:01103DA219813CRevival (Love Is Everywhere)Allman Brothers Band, The
11:54:0004:05104DA431029FMaterial GirlMadonna
11:57:0004:43107DA914614FPuttin' On The RitzTaco
*11:58:00COMVO107300F58:00 KZRO/Legal ID CLSXZ100FM
12:02:0001:01COMNG2896NBC TOH Net SpotCNN RADIO
12:03:0003:24102DA067317FIn The SummertimeMungo Jerry
12:03:0002:28102DA082308FTwo Divided By LoveGrass Roots
12:05:0201:01COMNF2895NBC B SpotCNN RADIO
12:06:0006:00COMDALIVEI06:00 StopSet
12:06:0001:00CADA102300FREDDING SUBARURedding Subaru
12:06:0001:00CADA104100FSISQ.COUNTY FIRE CHEIFSSisq. County Fire Cheifs
12:06:0001:00CADA102400FBROOKS AUTOMOTIVEBrooks Complete Automotive
12:06:0001:00COMVO289600NET SPOT A
12:06:0001:00COMDA101000FWKDYSHO PROMOZ100FM
12:06:0000:32COMVO107600FDMD+PS SWPRZ100FM Bumper
12:11:0004:00105DA501510CSee See RiderAnimals
12:14:0002:41103DA206724FSea CruiseFrankie Ford
12:17:0000:30COMVO109100FZ JingleZ-CHANNEL RADIO
12:18:0002:36102DA084007FSusanBuckinghams
12:20:0002:49102DA080907FLove TrainO'Jays
12:24:0002:39104DA281107FCheeseburger In ParadiseJimmy Buffett
12:27:00COMVO110300FZ CLSX SweeperZ100FM
12:28:0002:48101DA031614FWindyAssociation
12:30:0001:00COMNB2904CNN Net News 2CNN RADIO
12:31:0005:15112DA033520FCalifornicationRed Hot Chili Peppers
12:35:0006:00COMDALIVEI35:00 StopSet
12:35:0000:59COMDA290400NBC NEWS 1:00
12:35:0000:43CADA116500FEXPRESS EMPLOYMENT PROF.Express Employment Professionals
12:35:0000:30CADA104300FPAPA MURPHY'S PIZZAPapa Murphy's Pizza
12:35:0001:00COMVO289500NET SPOT B
12:40:0000:15CADA117500FBURGER EXPRESS/WXBurger Express
12:40:0000:30COMVO112000FZ-WEATHERZ100fm Weather
12:40:0000:29ATWEAX00CZ-WX
12:40:0001:00COMDA101000FWKDYSHO PROMOZ100FM
12:40:0000:10COMVO100100FPM LNGBLK SWPZ100FM
12:41:0004:09102DA096017FOnce In A LifetimeTalking Heads
12:44:0005:42105DA500739CEminence FrontWho
12:47:0000:30COMVO109100FZ JingleZ-CHANNEL RADIO
12:48:0003:40109DA026413FOut In The ColdPetty, Tom
12:50:0003:22106DA697712FShake It UpCars, The
12:54:0002:48114DA026013FBus RiderGuess Who, The
12:57:0004:09106DA687815CDon't Bring Me DownElectric Light Orchestra
*12:58:00COMVO107300F58:00 KZRO/Legal ID CLSXZ100FM
13:01:0002:42101DA033904FA Girl Like YouRascals
13:02:0001:01COMNG2896NBC TOH Net SpotCNN RADIO
13:03:0002:30108DA021300CLeaning On A Lamp PostHerman's Hermits
13:05:0201:01COMNF2895NBC B SpotCNN RADIO
13:06:0006:00COMDALIVEI06:00 StopSet
13:06:0001:00CADA103400FWATERWORKS PARKWaterworks Park
13:06:0000:43CADA116500FEXPRESS EMPLOYMENT PROF.Express Employment Professionals
13:06:0000:30CADA110600FSCCU CREDIT UNIONSiskiyou Central Credit Union
13:06:0000:60CADA102200FCOSCollege of the Siskiyous
13:06:0001:00COMVO289600NET SPOT A
13:06:0001:00COMDA101000FWKDYSHO PROMOZ100FM
13:06:0000:32COMVO107600FDMD+PS SWPRZ100FM Bumper
13:11:0002:52101DA021314COh, Pretty WomanRoy Orbison
13:14:0002:21101DA016401FSee You In SeptemberHappenings
13:17:0000:30COMVO109100FZ JingleZ-CHANNEL RADIO
13:18:0004:04111DA005408FCool, Calm, CollectedRolling Stones, The
13:20:0002:54107DA897308CWelcome BackJohn Sebastian
13:24:0004:08102DA155923FHouse At Pooh CornerLoggins & Messina
13:27:00COMVO110300FZ CLSX SweeperZ100FM
13:28:0003:08114DA026911FLove (Can Make You Happy)Mercy
13:30:0001:00COMNB2904CNN Net News 2CNN RADIO
13:31:0003:31106DA731806CElevation [Tomb Raider Mix]U2
13:35:0006:00COMDALIVEI35:00 StopSet
13:35:0000:59COMDA290400NBC NEWS 1:00
13:35:0000:55CADA105000FELLIS BROOKS HONDAEllis Brooks Honda
13:35:0000:37CADA106800FGREEN HEART COLLECTIVEGreen Heart Collective
13:35:0001:00COMVO289500NET SPOT B
13:40:0000:13CADA507700FLAKE SHASTINA GOLF RESORTLake Shastina Golf Resort
13:40:0000:30COMVO112000FZ-WEATHERZ100fm Weather
13:40:0000:29ATWEAX00CZ-WX
13:40:0001:00COMDA101000FWKDYSHO PROMOZ100FM
13:40:0000:10COMVO100100FPM LNGBLK SWPZ100FM
13:41:0003:35104DA277705CThe StrokeBilly Squier
13:44:0004:29105DA493736FThe First Cut Is The DeepestStewart, Rod
13:47:0000:30COMVO109100FZ JingleZ-CHANNEL RADIO
13:48:0004:00106DA788810CSeagullBad Company
13:50:0003:11114DA023417FWaterloo SunsetKinks, The
13:53:00COMVO110300FZ CLSX SweeperZ100FM
13:54:0003:18101DA029814FSweet Caroline (Good Times Never)Neil Diamond
13:57:0004:36112DA010703FLight Up Or Leave Me AloneTraffic
14:00:00COMVO107300FKZRO/Legal ID CLSXZ100FM
14:00:3000:46COMDA333200FThe Classics PromoSteve Downes
14:01:0000:03COMVO107700FMGK LINERMachine Gun Kelly
14:02:0001:01COMNG2896NBC TOH Net SpotCNN RADIO
14:02:0017:16507DA000100AHL H2/T1
14:05:0201:01COMNF2895NBC B SpotCNN RADIO
14:15:0002:00COMDALIVEI15:00 StopSet
14:15:0000:05COMVO101300FQUICK-ZZ100FM
14:16:0001:00CADA102300FREDDING SUBARURedding Subaru
14:16:0001:00COMVO289600NET SPOT A
14:16:0000:30COMVO109100FZ DAYTIME SWPZ-CHANNEL RADIO
14:16:0000:03COMVO107700FMGK LINERMachine Gun Kelly
14:17:0018:50507DA000200AHL H2/T2
14:30:0001:00COMNB2904CNN Net News 2CNN RADIO
14:30:0001:00COMDALIVEI30:00 StopSet
14:30:0000:05COMVO101300FQUICK-ZZ100FM
14:30:0000:30CADA104300FPAPA MURPHY'S PIZZAPapa Murphy's Pizza
14:30:0000:30COMVO109100FZ DAYTIME SWPZ-CHANNEL RADIO
14:30:0000:03COMVO107700FMGK LINERMachine Gun Kelly
14:31:0017:44507DA000300AHL H2/T3
14:40:0002:30COMDALIVEI40:00 StopSet
14:40:0000:05COMVO101300FQUICK-ZZ100FM
14:40:0001:00CADA103400FWATERWORKS PARKWaterworks Park
14:40:0000:59COMDA290400NBC NEWS 1:00
14:50:0000:15CADA118000FDECLERCK ENTERPRISESTaco Bell WX
14:50:0000:30COMVO112000FZ-WEATHERZ100fm Weather
14:50:0000:29ATWEAX00CZ-WX
14:50:0000:05COMVO101300FQUICK-ZZ100FM
15:00:00COMVO107300FKZRO/Legal ID CLSXZ100FM
15:00:3000:46COMDA333200FThe Classics PromoSteve Downes
15:01:0000:03COMVO107700FMGK LINERMachine Gun Kelly
15:02:0001:01COMNG2896NBC TOH Net SpotCNN RADIO
15:02:0019:45508DA000100AHL H3/T1
15:05:0201:01COMNF2895NBC B SpotCNN RADIO
15:15:0002:00COMDALIVEI15:00 StopSet
15:15:0000:05COMVO101300FQUICK-ZZ100FM
15:15:0000:60CADA102200FCOSCollege of the Siskiyous
15:16:0001:00COMVO289600NET SPOT A
15:16:0000:30COMVO109100FZ DAYTIME SWPZ-CHANNEL RADIO
15:16:0000:03COMVO107700FMGK LINERMachine Gun Kelly
15:17:0019:15508DA000200AHL H3/T2
15:30:0001:00COMNB2904CNN Net News 2CNN RADIO
15:30:0001:00COMDALIVEI30:00 StopSet
15:30:0000:05COMVO101300FQUICK-ZZ100FM
15:30:0000:30CADA110600FSCCU CREDIT UNIONSiskiyou Central Credit Union
15:30:0000:30COMVO109100FZ DAYTIME SWPZ-CHANNEL RADIO
15:30:0000:03COMVO107700FMGK LINERMachine Gun Kelly
15:31:0011:54508DA000300AHL H3/T3
15:40:0002:30COMDALIVEI40:00 StopSet
15:40:0000:05COMVO101300FQUICK-ZZ100FM
15:40:0001:00CADA102300FREDDING SUBARURedding Subaru
15:40:0000:59COMDA290400NBC NEWS 1:00
15:43:0003:12508DA000400AHL H3/T4
15:50:0000:15CADA109900FSOUL CONNECTIONSSoul Connection
15:50:0000:30COMVO112000FZ-WEATHERZ100fm Weather
15:50:0000:29ATWEAX00CZ-WX
15:50:0000:05COMVO101300FQUICK-ZZ100FM
15:50:0000:03COMVO107700FMGK LINERMachine Gun Kelly
16:00:00COMVO107300FKZRO/Legal ID CLSXZ100FM
16:00:3001:00COMDA101700FSunday PromoZ100FM
16:01:0000:04CADA493600FELLIS BROOKS/CLSX.OPENEllis Brooks Honda
16:02:0001:01COMNG2896NBC TOH Net SpotCNN RADIO
16:02:0019:28509DA000100The Classics H1/T1
16:05:0201:01COMNF2895NBC B SpotCNN RADIO
16:15:0002:00COMDALIVEI15:00 StopSet
16:15:0000:05COMVO101300FQUICK-ZZ100FM
16:16:0000:55CADA105000FELLIS BROOKS HONDAEllis Brooks Honda
16:16:0000:37CADA106800FGREEN HEART COLLECTIVEGreen Heart Collective
16:16:0001:00COMVO289600NET SPOT A
16:16:0000:30COMVO109100FZ DAYTIME SWPZ-CHANNEL RADIO
16:17:0016:57509DA000200The Classics H1/T2
16:30:0001:00COMNB2904CNN Net News 2CNN RADIO
16:35:0001:00COMDALIVEI35:00 StopSet
16:35:0000:05COMVO101300FQUICK-ZZ100FM
16:35:0001:00CADA103700FSAY CHEESE PIZZASay Cheese Pizza
16:35:0000:30COMVO109100FZ DAYTIME SWPZ-CHANNEL RADIO
16:36:0017:18509DA000300The Classics H1/T3
16:48:0000:05COMVO101300FQUICK-ZZ100FM
16:48:0001:00CADA116100FFUN FACTORY RENTALSFun Factory Rentals
16:48:0000:59COMDA290400NBC NEWS 1:00
16:50:0000:15CADA101600FFUR PURRSONS PET RST/WXFur Purrson's Pet Resort
16:50:0000:30COMVO112000FZ-WEATHERZ100fm Weather
16:50:0000:29ATWEAX00CZ-WX
16:52:0002:30COMDALIVEI52:00 StopSet
17:00:00COMVO107300FKZRO/Legal ID CLSXZ100FM
17:00:3001:00COMDA101700FSunday PromoZ100FM
17:02:0001:01COMNG2896NBC TOH Net SpotCNN RADIO
17:02:0019:44510DA000100The Classics H2/T1
17:05:0201:01COMNF2895NBC B SpotCNN RADIO
17:15:0002:00COMDALIVEI15:00 StopSet
17:15:0000:05COMVO101300FQUICK-ZZ100FM
17:16:0001:00CADA102400FBROOKS AUTOMOTIVEBrooks Complete Automotive
17:16:0001:00COMVO289600NET SPOT A
17:16:0000:30COMVO109100FZ DAYTIME SWPZ-CHANNEL RADIO
17:17:0013:19510DA000200The Classics H2/T2
17:30:0001:00COMNB2904CNN Net News 2CNN RADIO
17:30:0001:00COMDALIVEI30:00 StopSet
17:30:0000:05COMVO101300FQUICK-ZZ100FM
17:30:0000:30CADA116900FTHE FIFTH SEASONThe Fifth Season
17:30:0000:35CADA102100FSTATE FARM INSURANCERuss Porterfield Insurance
17:30:0000:30COMVO109100FZ DAYTIME SWPZ-CHANNEL RADIO
17:31:0016:16510DA000300The Classics H2/T3
17:48:0002:30COMDALIVEI48:00 StopSet
17:48:0000:05COMVO101300FQUICK-ZZ100FM
17:48:0001:00CADA104100FSISQ.COUNTY FIRE CHEIFSSisq. County Fire Cheifs
17:48:0000:59COMDA290400NBC NEWS 1:00
17:50:0000:13CADA506400FTM ESCROW+NOTARY/WXTM Escrow+Notary
17:50:0000:30COMVO112000FZ-WEATHERZ100fm Weather
17:50:0000:29ATWEAX00CZ-WX
17:52:0004:14510DA000400The Classics H2/T4
18:00:00COMVO107300FKZRO/Legal ID CLSXZ100FM
18:00:3001:00COMDA101700FSunday PromoZ100FM
18:02:0001:01COMNG2896NBC TOH Net SpotCNN RADIO
18:02:0015:48500DA000100DClark's RRR H1/T1
18:05:0201:01COMNF2895NBC B SpotCNN RADIO
18:15:0002:00COMDALIVEI15:00 StopSet
18:15:0000:05COMVO101300FQUICK-ZZ100FM
18:16:0001:00CADA103400FWATERWORKS PARKWaterworks Park
18:16:0001:00COMVO289600NET SPOT A
18:16:0000:30COMVO109100FZ DAYTIME SWPZ-CHANNEL RADIO
18:17:0015:52500DA000200DClark's RRR H1/T2
18:30:0001:00COMNB2904CNN Net News 2CNN RADIO
18:35:0001:00COMDALIVEI35:00 StopSet
18:35:0000:05COMVO101300FQUICK-ZZ100FM
18:35:0000:30CADA116900FTHE FIFTH SEASONThe Fifth Season
18:35:0000:30CADA102800FNORTHLAND CABLE CO.Northland Communications
18:35:0000:05COMVO101300FQUICK-ZZ100FM
18:36:0017:34500DA000300DClark's RRR H1/T3
18:45:0003:00COMDALIVEI45:00 StopSet
18:45:0000:05COMVO101300FQUICK-ZZ100FM
18:45:0001:00CADA103700FSAY CHEESE PIZZASay Cheese Pizza
18:45:0000:37CADA106800FGREEN HEART COLLECTIVEGreen Heart Collective
18:45:0000:59COMDA290400NBC NEWS 1:00
18:47:0003:57500DA000400DClark's RRR H1/T4
18:50:0000:15CADA109900FSOUL CONNECTIONSSoul Connection
18:50:0000:30COMVO112000FZ-WEATHERZ100fm Weather
18:50:0000:29ATWEAX00CZ-WX
18:50:0000:30COMVO109100FZ DAYTIME SWPZ-CHANNEL RADIO
19:00:00COMVO107300FKZRO/Legal ID CLSXZ100FM
19:00:3001:00COMDA101700FSunday PromoZ100FM
19:02:0001:01COMNG2896NBC TOH Net SpotCNN RADIO
19:02:0020:41501DA000100DClark's RRR H2/T1
19:05:0201:01COMNF2895NBC B SpotCNN RADIO
19:15:0002:00COMDALIVEI15:00 StopSet
19:15:0000:05COMVO101300FQUICK-ZZ100FM
19:16:0001:00CADA102300FREDDING SUBARURedding Subaru
19:16:0001:00COMVO289600NET SPOT A
19:16:0000:30COMVO109100FZ DAYTIME SWPZ-CHANNEL RADIO
19:17:0013:23501DA000200DClark's RRR H2/T2
19:30:0001:00COMNB2904CNN Net News 2CNN RADIO
19:35:0001:00COMDALIVEI35:00 StopSet
19:35:0000:05COMVO101300FQUICK-ZZ100FM
19:35:0001:00CADA103400FWATERWORKS PARKWaterworks Park
19:35:0000:05COMVO101300FQUICK-ZZ100FM
19:36:0015:46501DA000300DClark's RRR H2/T3
19:45:0003:00COMDALIVEI45:00 StopSet
19:45:0000:05COMVO101300FQUICK-ZZ100FM
19:45:0000:30CADA116900FTHE FIFTH SEASONThe Fifth Season
19:45:0000:55CADA105000FELLIS BROOKS HONDAEllis Brooks Honda
19:45:0000:59COMDA290400NBC NEWS 1:00
19:47:0003:22501DA000400DClark's RRR H2/T4
19:50:0000:13CADA506400FTM ESCROW+NOTARY/WXTM Escrow+Notary
19:50:0000:30COMVO112000FZ-WEATHERZ100fm Weather
19:50:0000:29ATWEAX00CZ-WX
19:50:0000:30COMVO109100FZ DAYTIME SWPZ-CHANNEL RADIO
20:00:00COMVO107300FKZRO/Legal ID CLSXZ100FM
20:00:3001:00COMDA101700FSunday PromoZ100FM
20:01:0000:05CADA572200FCABITTO'S SMALL ENGINE RECabitto's Small Engine Repair
20:02:0001:01COMNG2896NBC TOH Net SpotCNN RADIO
20:02:0014:22502DA000100DClark's RRR H3/T1
20:05:0201:01COMNF2895NBC B SpotCNN RADIO
20:15:0002:00COMDALIVEI15:00 StopSet
20:15:0000:05COMVO101300FQUICK-ZZ100FM
20:16:0000:33CADA110000FCABITTO'S ENGINE RPR.Cabitto's Small Engine Repair
20:16:0001:00CADA103700FSAY CHEESE PIZZASay Cheese Pizza
20:16:0001:00COMVO289600NET SPOT A
20:16:0000:30COMVO109100FZ DAYTIME SWPZ-CHANNEL RADIO
20:17:0017:23502DA000200DClark's RRR H3/T2
20:30:0001:00COMNB2904CNN Net News 2CNN RADIO
20:35:0001:00COMDALIVEI35:00 StopSet
20:35:0000:05COMVO101300FQUICK-ZZ100FM
20:35:0001:00CADA102400FBROOKS AUTOMOTIVEBrooks Complete Automotive
20:35:0000:05COMVO101300FQUICK-ZZ100FM
20:36:0017:29502DA000300DClark's RRR H3/T3
20:45:0003:00COMDALIVEI45:00 StopSet
20:45:0000:05COMVO101300FQUICK-ZZ100FM
20:45:0001:00CADA103400FWATERWORKS PARKWaterworks Park
20:45:0000:59COMDA290400NBC NEWS 1:00
20:47:0004:02502DA000400DClark's RRR H3/T4
20:50:0000:15CADA118000FDECLERCK ENTERPRISESTaco Bell WX
20:50:0000:30COMVO112000FZ-WEATHERZ100fm Weather
20:50:0000:29ATWEAX00CZ-WX
20:50:0000:30COMVO109100FZ DAYTIME SWPZ-CHANNEL RADIO
21:00:00COMVO107300FKZRO/Legal ID CLSXZ100FM
21:00:3001:00COMDA101700FSunday PromoZ100FM
21:02:0001:01COMNG2896NBC TOH Net SpotCNN RADIO
21:02:0017:30503DA000100DClark's RRR H4/T1
21:05:0201:01COMNF2895NBC B SpotCNN RADIO
21:15:0002:00COMDALIVEI15:00 StopSet
21:15:0000:05COMVO101300FQUICK-ZZ100FM
21:16:0000:43CADA116500FEXPRESS EMPLOYMENT PROF.Express Employment Professionals
21:16:0000:55CADA105000FELLIS BROOKS HONDAEllis Brooks Honda
21:16:0001:00COMVO289600NET SPOT A
21:16:0000:30COMVO109100FZ DAYTIME SWPZ-CHANNEL RADIO
21:17:0015:00503DA000200DClark's RRR H4/T2
21:30:0001:00COMNB2904CNN Net News 2CNN RADIO
21:35:0001:00COMDALIVEI35:00 StopSet
21:35:0000:05COMVO101300FQUICK-ZZ100FM
21:35:0000:30CADA110600FSCCU CREDIT UNIONSiskiyou Central Credit Union
21:35:0000:30CADA118100FSPORTSMEN'S DENSportsmen's Den
21:35:0000:05COMVO101300FQUICK-ZZ100FM
21:36:0015:29503DA000300DClark's RRR H4/T3
21:45:0003:00COMDALIVEI45:00 StopSet
21:45:0004:58503DA000400DClark's RRR H4/T4
21:45:0000:05COMVO101300FQUICK-ZZ100FM
21:45:0001:00CADA104100FSISQ.COUNTY FIRE CHEIFSSisq. County Fire Cheifs
21:45:0000:59COMDA290400NBC NEWS 1:00
21:50:0000:15CADA118000FDECLERCK ENTERPRISESTaco Bell WX
21:50:0000:30COMVO112000FZ-WEATHERZ100fm Weather
21:50:0000:29ATWEAX00CZ-WX
21:50:0000:30COMVO109100FZ DAYTIME SWPZ-CHANNEL RADIO
22:00:00COMVO107300FKZRO/Legal ID CLSXZ100FM
22:00:3001:00COMDA101700FSunday PromoZ100FM
22:01:0001:00COMDALIVEI01:00 StopSet
22:01:0000:11COMVO106100FELWOOD LINERElwood Blues
22:02:0001:01COMNG2896NBC TOH Net SpotCNN RADIO
22:02:0013:04505DA000500House of Blues T1
22:03:0003:00COMDALIVEI03:00 StopSet
22:05:0201:01COMNF2895NBC B SpotCNN RADIO
22:15:0002:00COMDALIVEI15:00 StopSet
22:15:0000:05COMVO101300FQUICK-ZZ100FM
22:16:0001:00CADA102300FREDDING SUBARURedding Subaru
22:16:0001:00COMVO289600NET SPOT A
22:16:0000:05COMVO101300FQUICK-ZZ100FM
22:16:0000:11COMVO106100FELWOOD LINERElwood Blues
22:17:0018:43505DA000600House of Blues T2
22:30:0001:00COMNB2904CNN Net News 2CNN RADIO
22:35:0000:05COMVO101300FQUICK-ZZ100FM
22:35:0000:30CADA116900FTHE FIFTH SEASONThe Fifth Season
22:35:0000:35CADA102100FSTATE FARM INSURANCERuss Porterfield Insurance
22:35:0000:05COMVO101300FQUICK-ZZ100FM
22:35:0000:11COMVO106100FELWOOD LINERElwood Blues
22:36:0016:20505DA000700House of Blues T3
22:47:0000:05COMVO101300FQUICK-ZZ100FM
22:47:0001:00CADA102400FBROOKS AUTOMOTIVEBrooks Complete Automotive
22:47:0000:59COMDA290400NBC NEWS 1:00
22:50:0000:15CADA109900FSOUL CONNECTIONSSoul Connection
22:50:0000:30COMVO112000FZ-WEATHERZ100fm Weather
22:50:0000:29ATWEAX00CZ-WX
22:50:0000:05COMVO101300FQUICK-ZZ100FM
22:50:0000:11COMVO106100FELWOOD LINERElwood Blues
22:51:0005:37505DA000800House of Blues T4
23:00:00COMVO107300FKZRO/Legal ID CLSXZ100FM
23:00:3001:00COMDA101700FSunday PromoZ100FM
23:01:0000:04CADA493700FELLIS BROOKS/BTL YRS OPNEllis Brooks Honda
23:02:0001:01COMNG2896NBC TOH Net SpotCNN RADIO
23:02:0012:05504DA000100Beatle Years T1
23:05:0201:01COMNF2895NBC B SpotCNN RADIO
23:15:0002:30COMDALIVEI15:00 StopSet
23:15:0000:05COMVO101300FQUICK-ZZ100FM
23:16:0000:55CADA105000FELLIS BROOKS HONDAEllis Brooks Honda
23:16:0000:30CADA110600FSCCU CREDIT UNIONSiskiyou Central Credit Union
23:16:0000:30CADA102800FNORTHLAND CABLE CO.Northland Communications
23:16:0001:00COMVO289600NET SPOT A
23:16:0000:30COMVO109100FZ DAYTIME SWPZ-CHANNEL RADIO
23:18:0011:14504DA000200Beatle Years T2
23:25:0001:30COMDALIVEI25:00 StopSet
23:25:0000:05COMVO101300FQUICK-ZZ100FM
23:25:0001:00CADA104100FSISQ.COUNTY FIRE CHEIFSSisq. County Fire Cheifs
23:25:0000:30COMVO109100FZ DAYTIME SWPZ-CHANNEL RADIO
23:27:0014:43504DA000300Beatle Years T3
23:30:0001:00COMNB2904CNN Net News 2CNN RADIO
23:48:0003:00COMDALIVEI48:00 StopSet
23:48:0000:05COMVO101300FQUICK-ZZ100FM
23:48:0000:43CADA116500FEXPRESS EMPLOYMENT PROF.Express Employment Professionals
23:48:0000:30CADA118100FSPORTSMEN'S DENSportsmen's Den
23:48:0000:59COMDA290400NBC NEWS 1:00
23:50:0000:13CADA506400FTM ESCROW+NOTARY/WXTM Escrow+Notary
23:50:0000:30COMVO112000FZ-WEATHERZ100fm Weather
23:50:0000:29ATWEAX00CZ-WX
23:50:0000:30COMVO109100FZ DAYTIME SWPZ-CHANNEL RADIO
23:51:0016:10504DA000400Beatle Years T4
23:55:0001:00COMDALIVEI55:00 StopSet
23:59:00COMVO107300FKZRO/Legal ID CLSXZ100FM